This demonstration page uses our WeatherBlox Daily Observations layout. Learn more.

Left ArrowRight Arrow

39.12711, -84.51439

Hourly Observations for June 28, 2018

Temp ( °F °C ) Dew Point ( °F °C ) Humidity (%) Winds ( mph kmh ) Pressure ( in mb ) Visibility ( mi km ) Precip ( " mm )
12:40 am 00:40 Mostly Clear with Mist and Fog 71 21.7 71 21.7 100 100 N N/A 29.88 1012 2 2 N/A
12:53 am 00:53 Clear with Mist and Fog 73 22.8 71 21.7 94 94 N N/A 29.88 1012 3 5 N/A
1:53 am 01:53 Mostly Cloudy with Mist and Fog 70 21.1 70 21.1 100 100 N N/A 29.88 1012 6 10 N/A
2:53 am 02:53 Partly Cloudy with Mist and Fog 69 20.6 69 20.6 100 100 NE 3 6 29.88 1012 6 10 N/A
2:58 am 02:58 Mostly Cloudy with Mist and Fog 69 20.6 69 20.6 100 100 NE 3 6 29.91 1013 2 2 N/A
3:20 am 03:20 Partly Cloudy with Mist and Fog 69 20.6 69 20.6 100 100 N N/A 29.88 1012 3 5 N/A
3:26 am 03:26 Mostly Cloudy with Mist and Fog 69 20.6 69 20.6 100 100 N N/A 29.88 1012 2 2 N/A
3:53 am 03:53 Mostly Cloudy with Mist and Fog 69 20.6 69 20.6 100 100 N N/A 29.88 1012 1 2 N/A
3:59 am 03:59 Mostly Cloudy with Mist and Fog 69 20.6 69 20.6 100 100 N N/A 29.88 1012 2 3 N/A
4:05 am 04:05 Mostly Cloudy with Mist and Fog 69 20.6 69 20.6 100 100 N N/A 29.88 1012 1 1 N/A
4:24 am 04:24 Mostly Cloudy with Mist and Fog 68 20 68 20 100 100 N N/A 29.91 1013 1 2 N/A
4:26 am 04:26 Mostly Clear with Mist and Fog 68 20 68 20 100 100 N N/A 29.91 1013 3 4 N/A
4:33 am 04:33 Mostly Clear with Mist and Fog 68 20 68 20 100 100 N N/A 29.91 1013 4 6 N/A
4:48 am 04:48 Partly Cloudy with Mist and Fog 68 20 68 20 100 100 N N/A 29.91 1013 2 2 N/A
4:53 am 04:53 Mostly Clear with Mist and Fog 68 20 68 20 100 100 N N/A 29.88 1012 1 2 N/A
4:57 am 04:57 Partly Cloudy with Mist and Fog 68 20 68 20 100 100 N N/A 29.91 1013 1 1 N/A
5:15 am 05:15 Mostly Cloudy with Fog 67 19.4 67 19.4 100 100 N N/A 29.91 1013 1 1 N/A
5:20 am 05:20 Partly Cloudy with Mist and Fog 67 19.4 67 19.4 100 100 N N/A 29.91 1013 1 2 N/A
5:30 am 05:30 Mostly Cloudy with Mist and Fog 67 19.4 67 19.4 100 100 N N/A 29.91 1013 2 3 N/A
5:36 am 05:36 Mostly Cloudy with Mist and Fog 67 19.4 67 19.4 100 100 N N/A 29.91 1013 1 1 N/A
5:53 am 05:53 Mostly Cloudy with Mist and Fog 66 18.9 66 18.9 100 100 N N/A 29.90 1013 1 1 N/A
5:57 am 05:57 Mostly Cloudy with Mist and Fog 66 18.9 66 18.9 100 100 N N/A 29.91 1013 2 3 N/A
6:06 am 06:06 Mostly Cloudy with Mist and Fog 66 18.9 66 18.9 100 100 N N/A 29.91 1013 1 2 N/A
6:20 am 06:20 Mostly Cloudy with Mist and Fog 66 18.9 66 18.9 100 100 N N/A 29.91 1013 3 4 N/A
6:32 am 06:32 Mostly Cloudy with Mist and Fog 67 19.4 67 19.4 100 100 N N/A 29.91 1013 1 2 N/A
6:35 am 06:35 Mostly Cloudy with Fog 66 18.9 66 18.9 100 100 N N/A 29.91 1013 0 0 N/A
6:53 am 06:53 Partly Cloudy with Mist and Fog 66 18.9 66 18.9 100 100 N N/A 29.92 1013 6 10 N/A
7:27 am 07:27 Mostly Cloudy with Patchy Fog 69 20.6 69 20.6 100 100 SSW 3 6 29.91 1013 3 5 N/A
7:53 am 07:53 Partly Cloudy with Mist and Fog 70 21.1 70 21.1 100 100 N N/A 29.92 1013 6 10 N/A
8:53 am 08:53 Sunny 76 24.4 68 20 77 77 N N/A 29.92 1013 10 16 N/A
9:53 am 09:53 Sunny 77 25 69 20.6 77 77 N N/A 29.94 1014 10 16 N/A
10:53 am 10:53 Partly Cloudy 81 27.2 67 19.4 62 62 N N/A 29.96 1015 10 16 N/A
11:53 am 11:53 Partly Cloudy 81 27.2 68 20 65 65 N N/A 29.96 1015 10 16 N/A
12:53 pm 12:53 Partly Cloudy 84 28.9 68 20 59 59 N N/A 29.95 1014 10 16 N/A
1:53 pm 13:53 Partly Cloudy 85 29.4 69 20.6 59 59 VRB 5 7 29.92 1013 10 16 N/A
2:53 pm 14:53 Sunny 85 29.4 69 20.6 59 59 N N/A 29.91 1013 10 16 N/A
3:53 pm 15:53 Sunny 86 30 67 19.4 53 53 N N/A 29.92 1013 10 16 N/A
4:53 pm 16:53 Partly Cloudy 87 30.6 67 19.4 51 51 SE 5 7 29.93 1014 10 16 N/A
5:53 pm 17:53 Partly Cloudy 86 30 68 20 55 55 S 3 6 29.94 1014 10 16 N/A
6:53 pm 18:53 Partly Cloudy 84 28.9 71 21.7 65 65 S 5 7 29.92 1013 10 16 N/A
7:53 pm 19:53 Mostly Sunny 83 28.3 71 21.7 67 67 W 3 6 29.92 1013 10 16 N/A
8:53 pm 20:53 Sunny 78 25.6 73 22.8 85 85 N N/A 29.93 1014 10 16 N/A
9:53 pm 21:53 Clear 74 23.3 71 21.7 91 91 N N/A 29.95 1014 10 16 N/A
10:53 pm 22:53 Clear 72 22.2 71 21.7 97 97 N N/A 29.97 1015 10 16 N/A
11:53 pm 23:53 Clear 70 21.1 70 21.1 100 100 N N/A 29.98 1015 10 16 N/A

Powered by AerisWeather